Location: Mason Neck State Park
(38.6428°N, 77.1981°W)
Time: 16:43:07
(UTC-04:00)

Cosmos 2278 Rocket - Visible Passes

Search period start: 26 September 2016 00:00
Search period end: 06 October 2016 00:00
Orbit: 842 x 845 km, 71.0° (Epoch: 25 September)

Date Brightness Start Highest point End Pass type
(mag) Time Alt. Az. Time Alt. Az. Time Alt. Az.
26 Sep 2.5 19:21:07 10° NNW 19:26:47 77° WSW 19:32:25 10° SSE visible
30 Sep 5.6 20:10:47 10° W 20:11:50 10° W 20:12:52 10° WSW visible
01 Oct 5.6 19:55:45 10° W 19:57:20 11° W 19:58:55 10° WSW visible
02 Oct 5.6 19:40:51 10° WNW 19:42:49 12° W 19:44:48 10° WSW visible
03 Oct 5.6 19:26:02 10° WNW 19:28:19 13° W 19:30:37 10° WSW visible
04 Oct 5.6 19:11:15 10° WNW 19:13:49 13° W 19:16:22 10° SW visible
05 Oct 4.8 06:32:11 10° SSE 06:36:41 25° ESE 06:41:13 10° NE visible
